Location: Altmatt
(47.1333°N, 8.7000°E)
Time: 07:53:14
(UTC+00:00)

CZ-4C R/B - Pass Details

Date: 13 July 2020
Orbit: 632 x 1369 km, 63.4° (Epoch: 04 August)

Event Time Altitude Azimuth Distance (km) Brightness Sun altitude
Rises 20:38:42 0° 318° (NW) 3,664 7.8 -11.0°
Reaches altitude 10° 20:41:21 10° 327° (NNW) 2,827 6.5 -11.3°
Maximum altitude 20:47:36 36° 34° (NNE) 1,740 4.0 -12.0°
Drops below altitude 10° 20:54:48 10° 99° (E) 3,276 4.8 -12.7°
Enters shadow 20:56:15 - 103° (ESE) 3,728 5.1 -12.9°
